CZ-4C R/B

Satellite information

Favourite Embed

Satellite Type and Status

ROCKET BODYIN ORBIT

Key statistics

Satellite CZ-4C R/B at a glance.

Uptime

1143

Days in orbit

Revolutions

≈ 15.0

Per day

Orbit

SSO

Sun Synchronous Orbit

Inclination

98.1

Latest

Satellite identification and parameters

Extended collection of information and parameters for CZ-4C R/B.

Object identification

Identified? True

Debris? False

Object name: CZ-4C R/B

International designator: 2022-106B

Object number (NORAD): 53699

Object ID (CCSDS): 53699

Country: PEOPLES REPUBLIC OF CHINA (PRC)

Current information (Y/N): Y

RCS size: LARGE

Orbital parameters

Period: 95.924 minutes

Inclination: 98.0841 deg

SMA: 6941.369 km

Apoapsis: 642.699 km

Periapsis: 483.77 km

RAAN: 0.4362 deg

Eccentricy: 0.01144798

Argument of periapsis: 238.1052 deg

Mean anomaly: 120.8993 deg

Mean motion: 15.01187858 rev/day

Mean motion (dot): 0.00005491 rev/day2

B* drag term: 0.00037708287 1/REarth

Two-line elements (TLE)

Creation date: Oct. 19, 2025, 2:20 a.m.

Reference frame: TEME

Reference center: EARTH

Epoch: Oct. 18, 2025, 6:56 p.m. UTC

TLE line 0: 0 CZ-4C R/B

TLE line 1: 1 53699U 22106B 25291.78893592 .00005491 00000-0 37708-3 0 9990

TLE line 2: 2 53699 98.0841 0.4362 0114480 238.1052 120.8993 15.01187858170686

Live tracking on map

Real-time ground track for satellite CZ-4C R/B.

In-orbit conjunctions

A list of the most updated potential collisions computed for object CZ-4C R/B.

Target Orbit TCA Probability of collision Miss distance Type
COSMOS 2251 DEB LEO 2025-08-05 13:52:00 0.001110967 57.0 (m) DEBRIS
SL-8 DEB * LEO 2025-06-02 21:51:24 0.0001034062 118.0 (m) DEBRIS
SOHLA-1 (MAIDO-1) SSO 2024-10-27 17:34:25 0.0001882953 146.0 (m) PAYLOAD

Associated space launch

The Yaogan 33-02 is a Chinese military “remote sensing” satellite of unknown purpose.

CZ-4C R/B was lifted into orbit during the mission ‘Long March 4C | Yaogan 33-02’, on board a Long March 4C space rocket.

The launch took place on Sept. 2, 2022, 11:44 p.m. from Launch Area 4 (SLS-2 / 603).

For more information about the launch, click the button.

Launch to space Long March 4C | Yaogan 33-02
Long March 4C | Yaogan 33-02

Agency: N/A

Status: Launch Successful

Launch date: Sept. 2, 2022, 11:44 p.m. UTC

Rocket: Long March 4C

Launch pad: Launch Area 4 (SLS-2 / 603)

Location: Jiuquan Satellite Launch Center, People's Republic of China

...

Latest news about this satellite

There are no fresh news available about this satellite. Check back as we update our databases every day.


Newsletter sign-up

Weekly statistics, charts and insights to help you stay on top of the space industry.